Location: Düngen
(52.0952°N, 10.0219°E)
Time: 15:36:22
(UTC+00:00)

Meteor 1-18 Rocket - Pass Details

Date: 11 March 2026
Orbit: 835 x 908 km, 81.2° (Epoch: 14 April)

Event Time Altitude Azimuth Distance (km) Brightness Sun altitude
Rises 18:57:07 0° 347° (NNW) 3,465 7.8 -16.0°
Reaches altitude 10° 18:59:35 10° 348° (NNW) 2,513 7.0 -16.4°
Maximum altitude 19:05:18 81° 77° (ENE) 868 4.1 -17.2°
Enters shadow 19:10:49 10° 164° (SSE) 2,433 6.3 -18.0°
